Location: Armstrong
(40.9123°N, 82.0110°W)
Time: 08:56:04
(UTC+00:00)

IRS-1C Rocket - Pass Details

Date: 29 October 2020
Orbit: 801 x 805 km, 99.0° (Epoch: 29 November)

Event Time Altitude Azimuth Distance (km) Brightness Sun altitude
Rises 23:30:30 0° 159° (SSE) 3,300 7.1 -12.5°
Reaches altitude 10° 23:32:49 10° 158° (SSE) 2,374 6.4 -13.0°
Maximum altitude 23:38:03 75° 74° (ENE) 834 4.0 -13.9°
Drops below altitude 10° 23:43:20 10° 350° (N) 2,393 6.6 -14.9°
Sets 23:45:41 0° 348° (NNW) 3,329 7.4 -15.4°
